Weather History for St. Charles, MO

Change the Weather History Date:

Monday, November 5, 2012

  Actual Average (KSTL) Record (KSTL)
Temperature  
Mean Temperature 42 °F 52 °F  
Max Temperature 43 °F 61 °F 82 °F (1978)
Min Temperature 41 °F 43 °F 23 °F (1976)
Degree Days  
Heating Degree Days 23 14  
Month to date heating degree days 64  
Since 1 July heating degree days 340  
Cooling Degree Days 0 0  
Month to date cooling degree days 0  
Year to date cooling degree days 1642  
Moisture  
Dew Point 39 °F    
Average Humidity 86    
Maximum Humidity 93    
Minimum Humidity 74    
Precipitation  
Precipitation 0.15 in 0.13 in 1.62 in (1956)
Month to date precipitation 0.60  
Year to date precipitation 34.81  
Snow  
Snow 0.00 in 0.00 in 3.40 in (1951)
Month to date snowfall 0.0  
Since 1 July snowfall 0.0  
Since 1 September snowfall 0.0  
Snow Depth -    
Sea Level Pressure  
Sea Level Pressure 30.11 in    
Wind  
Wind Speed 8 mph (East)    
Max Wind Speed 12 mph    
Max Gust Speed -    
Visibility 5 miles    
Events Rain    
T = Trace of Precipitation, MM = Missing Value Source: NWS Daily Summary

Daily Weather History Graph

Daily Weather History Graph

Search for Another Location

Airport:

Trip Planner

Search our weather history database for the weather conditions in past years. The results will help you decide how hot, cold, wet, or windy it might be!

Date:

Astronomy

Nov. 05, 2012 Rise Set
Actual Time 6:33 AM CST 4:56 PM CST
Civil Twilight 6:05 AM CST 5:24 PM CST
Nautical Twilight 5:34 AM CST 5:55 PM CST
Astronomical Twilight 5:03 AM CST 6:27 PM CST
Moon 10:33 PM CST (11/5) 11:53 AM CST (11/5)
Length of Visible Light 11h 18m
Length of Day
10h 22m
Waning Gibbous, 62% of the Moon is Illuminated
Nov 5
Waning Gibbous
Nov 6
Last Quarter
Nov 13
New
Nov 20
First Quarter
Nov 28
Full

Hourly Weather History & Observations

Time (CST) Temp. Windchill Dew Point Humidity Pressure Visibility Wind Dir Wind Speed Gust Speed Precip Events Conditions
12:54 AM 43.0 °F 40.3 °F 35.1 °F 74% 30.16 in 9.0 mi ESE 4.6 mph - N/A   Overcast
1:54 AM 42.1 °F - 35.1 °F 76% 30.16 in 8.0 mi Calm Calm - N/A   Overcast
2:54 AM 42.1 °F 37.7 °F 35.1 °F 76% 30.14 in 9.0 mi East 6.9 mph - N/A   Overcast
3:54 AM 42.1 °F 36.6 °F 35.1 °F 76% 30.11 in 9.0 mi East 9.2 mph - N/A   Overcast
4:54 AM 42.1 °F 36.6 °F 36.0 °F 79% 30.11 in 8.0 mi ESE 9.2 mph - 0.01 in Rain Light Rain
5:54 AM 41.0 °F 35.8 °F 37.0 °F 86% 30.11 in 6.0 mi ESE 8.1 mph - 0.01 in Rain Light Rain
6:54 AM 41.0 °F 35.8 °F 37.9 °F 89% 30.11 in 6.0 mi ESE 8.1 mph - 0.01 in Rain Light Rain
7:54 AM 42.1 °F 36.6 °F 37.9 °F 85% 30.11 in 5.0 mi ESE 9.2 mph - 0.02 in Rain Light Rain
8:54 AM 42.1 °F 35.7 °F 39.0 °F 89% 30.11 in 4.0 mi East 11.5 mph - 0.03 in Rain Light Rain
9:54 AM 43.0 °F 37.2 °F 39.0 °F 86% 30.11 in 5.0 mi ESE 10.4 mph - 0.00 in Rain Light Rain
10:37 AM 42.8 °F 37.0 °F 39.2 °F 87% 30.11 in 4.0 mi ESE 10.4 mph - 0.00 in   Overcast
10:50 AM 42.8 °F 36.6 °F 39.2 °F 87% 30.11 in 3.0 mi SE 11.5 mph - 0.01 in Rain Light Rain
10:54 AM 43.0 °F 37.7 °F 39.0 °F 86% 30.12 in 3.0 mi ESE 9.2 mph - 0.01 in Rain Light Rain
11:21 AM 42.8 °F 38.0 °F 39.2 °F 87% 30.11 in 2.5 mi ESE 8.1 mph - 0.00 in Rain Light Rain
11:54 AM 43.0 °F 38.2 °F 39.9 °F 89% 30.11 in 1.8 mi ESE 8.1 mph - 0.02 in Rain Light Rain
12:00 PM 42.8 °F 38.6 °F 39.2 °F 87% 30.10 in 1.5 mi ESE 6.9 mph - 0.01 in Rain Light Rain
12:41 PM 42.8 °F 38.6 °F 41.0 °F 93% 30.10 in 2.0 mi ESE 6.9 mph - 0.03 in Rain Light Rain
12:54 PM 42.1 °F 37.1 °F 39.9 °F 92% 30.10 in 2.5 mi East 8.1 mph - 0.03 in Rain Light Rain
12:59 PM 42.8 °F 37.0 °F 39.2 °F 87% 30.09 in 3.0 mi East 10.4 mph - 0.00 in Rain Light Rain
1:02 PM 42.8 °F 37.5 °F 39.2 °F 87% 30.09 in 2.5 mi East 9.2 mph - 0.00 in Rain Light Rain
1:07 PM 42.8 °F 37.5 °F 39.2 °F 87% 30.09 in 2.0 mi East 9.2 mph - 0.00 in Rain Light Rain
1:19 PM 42.8 °F 37.5 °F 39.2 °F 87% 30.09 in 2.5 mi East 9.2 mph - 0.00 in   Overcast
1:30 PM 42.8 °F 37.0 °F 39.2 °F 87% 30.09 in 2.5 mi East 10.4 mph - 0.01 in   Overcast
1:32 PM 42.8 °F 37.0 °F 39.2 °F 87% 30.09 in 3.0 mi East 10.4 mph - 0.01 in   Overcast
1:44 PM 42.8 °F 37.0 °F 39.2 °F 87% 30.09 in 3.0 mi East 10.4 mph - 0.01 in   Overcast
1:54 PM 43.0 °F 37.7 °F 39.9 °F 89% 30.09 in 4.0 mi East 9.2 mph - 0.01 in   Overcast
2:09 PM 42.8 °F 36.6 °F 39.2 °F 87% 30.08 in 4.0 mi East 11.5 mph - N/A   Overcast
2:40 PM 42.8 °F 36.6 °F 39.2 °F 87% 30.08 in 5.0 mi East 11.5 mph - N/A   Overcast
2:54 PM 43.0 °F 36.8 °F 39.9 °F 89% 30.09 in 6.0 mi East 11.5 mph - N/A   Overcast
3:54 PM 43.0 °F 37.7 °F 39.9 °F 89% 30.09 in 6.0 mi East 9.2 mph - N/A   Overcast
4:54 PM 43.0 °F 38.2 °F 39.9 °F 89% 30.09 in 7.0 mi East 8.1 mph - N/A   Overcast
5:54 PM 43.0 °F 38.2 °F 39.9 °F 89% 30.11 in 6.0 mi ENE 8.1 mph - N/A   Overcast
6:54 PM 43.0 °F 37.2 °F 39.0 °F 86% 30.12 in 6.0 mi East 10.4 mph - N/A   Overcast
7:54 PM 43.0 °F 38.8 °F 39.0 °F 86% 30.12 in 6.0 mi ENE 6.9 mph - N/A   Overcast
8:54 PM 42.1 °F 37.7 °F 39.0 °F 89% 30.11 in 5.0 mi East 6.9 mph - N/A   Overcast
9:54 PM 42.1 °F 38.4 °F 37.9 °F 85% 30.11 in 6.0 mi ESE 5.8 mph - N/A   Overcast
10:54 PM 42.1 °F 40.2 °F 37.9 °F 85% 30.10 in 5.0 mi East 3.5 mph - N/A   Overcast
11:54 PM 42.1 °F - 37.9 °F 85% 30.09 in 5.0 mi Calm Calm - N/A   Overcast